FW8813 Weather Reports


time (UTC)temp
F
wind
direction
speed
knots
gust
knots
rain 1hr
in
rain 24hr
in
rain mn
in
humidity
%
barometer
mb
20260502233536 55 41 2.6 9.6 0.00 0.00 0.00 47 1012.8
20260502233045 56 6 3.5 9.6 0.00 0.00 0.00 46 1012.7
20260502232536 56 38 4.3 10.4 0.00 0.00 0.00 45 1012.7
20260502232034 56 45 4.3 10.4 0.00 0.00 0.00 46 1012.6
20260502231541 56 338 2.6 9.6 0.00 0.00 0.00 45 1012.5
20260502231035 56 33 4.3 9.6 0.00 0.00 0.00 45 1012.5
20260502230534 56 1 3.5 7.0 0.00 0.00 0.00 46 1012.5
20260502230044 56 254 1.7 7.0 0.00 0.00 0.00 46 1012.5
20260502225534 56 271 3.5 7.0 0.00 0.00 0.00 44 1012.6
20260502225033 56 342 3.5 7.0 0.00 0.00 0.00 45 1012.5
20260502224540 57 351 0.9 7.0 0.00 0.00 0.00 46 1012.4
20260502224033 57 295 2.6 7.8 0.00 0.00 0.00 43 1012.5
20260502223534 57 288 2.6 10.4 0.00 0.00 0.00 43 1012.5
20260502223048 58 339 3.5 10.4 0.00 0.00 0.00 44 1012.5
20260502222534 58 15 5.2 10.4 0.00 0.00 0.00 43 1012.3
20260502222034 58 2 2.6 15.6 0.00 0.00 0.00 43 1012.4
20260502221548 58 335 6.1 15.6 0.00 0.00 0.00 42 1012.3
20260502221033 58 316 7.0 15.6 0.00 0.00 0.00 41 1012.4
20260502220535 58 28 6.1 13.0 0.00 0.00 0.00 42 1012.3
20260502220049 58 15 6.1 13.0 0.00 0.00 0.00 43 1012.4
20260502215533 58 30 6.1 12.2 0.00 0.00 0.00 42 1012.1
20260502215034 58 299 6.1 12.2 0.00 0.00 0.00 41 1012.0
20260502214552 58 341 3.5 16.5 0.00 0.00 0.00 43 1012.0
20260502214035 59 23 6.1 16.5 0.00 0.00 0.00 43 1011.9
20260502213536 59 356 7.0 14.8 0.00 0.00 0.00 39 1011.9
20260502213047 60 352 5.2 11.3 0.00 0.00 0.00 41 1011.7
20260502212534 60 288 5.2 11.3 0.00 0.00 0.00 42 1011.7
20260502212035 60 15 3.5 12.2 0.00 0.00 0.00 40 1011.5
20260502211556 60 332 4.3 13.0 0.00 0.00 0.00 42 1011.5
20260502211034 60 1 4.3 13.0 0.00 0.00 0.00 40 1011.3
20260502210533 60 56 3.5 9.6 0.00 0.00 0.00 42 1011.4
20260502210048 60 57 5.2 9.6 0.00 0.00 0.00 42 1011.2
20260502205533 60 32 4.3 8.7 0.00 0.00 0.00 45 1011.2
20260502205033 60 323 3.5 8.7 0.00 0.00 0.00 41 1011.2
20260502204539 60 39 3.5 12.2 0.00 0.00 0.00 43 1011.2
20260502204034 60 315 4.3 12.2 0.00 0.00 0.00 44 1011.3
20260502203533 60 39 5.2 10.4 0.00 0.00 0.00 41 1011.2
20260502203056 61 356 4.3 10.4 0.00 0.00 0.00 42 1011.2
20260502202534 61 7 2.6 7.0 0.00 0.00 0.00 42 1011.2
20260502202033 61 306 3.5 7.0 0.00 0.00 0.00 40 1011.5
20260502201547 61 34 4.3 7.0 0.00 0.00 0.00 42 1011.3
20260502201035 61 32 2.6 7.0 0.00 0.00 0.00 41 1011.2
20260502200534 61 33 1.7 5.2 0.00 0.00 0.00 39 1011.5
20260502200043 61 257 3.5 7.0 0.00 0.00 0.00 41 1011.5
20260502195535 61 327 3.5 9.6 0.00 0.00 0.00 41 1011.6
20260502195033 61 21 2.6 10.4 0.00 0.00 0.00 39 1011.6
20260502194541 61 38 4.3 10.4 0.00 0.00 0.00 40 1011.7
20260502194033 62 77 2.6 7.8 0.00 0.00 0.00 40 1011.7
20260502193535 62 307 1.7 7.8 0.00 0.00 0.00 40 1011.9
20260502193041 61 82 1.7 7.0 0.00 0.00 0.00 46 1011.8
20260502192534 60 0 2.6 7.8 0.00 0.00 0.00 39 1011.9
20260502192033 60 324 3.5 7.8 0.00 0.00 0.00 39 1011.9
20260502191547 60 41 1.7 7.8 0.00 0.00 0.00 40 1011.9
20260502191033 60 0 0.9 9.6 0.00 0.00 0.00 42 1011.8
20260502190534 60 290 2.6 9.6 0.00 0.00 0.00 41 1011.8
20260502190046 60 127 0.9 7.0 0.00 0.00 0.00 41 1012.0
20260502185534 60 115 2.6 9.6 0.00 0.00 0.00 39 1012.1
20260502185034 61 28 2.6 11.3 0.00 0.00 0.00 44 1012.1
20260502184542 61 25 5.2 11.3 0.00 0.00 0.00 45 1012.1
20260502184034 61 288 5.2 11.3 0.00 0.00 0.00 42 1012.2
20260502183535 60 306 4.3 11.3 0.00 0.00 0.00 43 1012.1
20260502183042 60 47 5.2 10.4 0.00 0.00 0.00 41 1012.1
20260502182535 60 2 4.3 12.2 0.00 0.00 0.00 41 1012.3
20260502182033 60 35 5.2 12.2 0.00 0.00 0.00 41 1012.7
20260502181546 60 46 3.5 10.4 0.00 0.00 0.00 40 1012.8
20260502181037 59 359 5.2 10.4 0.00 0.00 0.00 42 1012.7
20260502180533 59 33 5.2 9.6 0.00 0.00 0.00 40 1012.7
20260502164033 55 150 1.7 7.0 0.00 0.00 0.00 52 1014.2
20260502163533 55 140 1.7 7.0 0.00 0.00 0.00 47 1014.3
20260502163107 55 349 1.7 7.0 0.00 0.00 0.00 49 1014.3
20260502162534 54 77 3.5 10.4 0.00 0.00 0.00 48 1014.4
20260502162034 54 10 2.6 10.4 0.00 0.00 0.00 49 1014.5
20260502161551 54 317 1.7 7.0 0.00 0.00 0.00 50 1014.7
20260502161035 53 336 3.5 7.0 0.00 0.00 0.00 50 1014.6
20260502160533 53 29 4.3 10.4 0.00 0.00 0.00 52 1014.7
20260502152033 51 211 0.9 5.2 0.00 0.00 0.00 55 1015.0
20260502151544 51 290 0.9 5.2 0.00 0.00 0.00 58 1015.0
20260502151033 51 4 3.5 5.2 0.00 0.00 0.00 55 1014.8
20260502150533 51 57 0.9 5.2 0.00 0.00 0.00 56 1014.9
20260502130537 50 0 2.6 7.0 0.00 0.00 0.00 54 1014.7
20260502123533 50 123 0.0 4.3 0.00 0.00 0.00 53 1014.2
20260502123047 50 96 0.9 6.1 0.00 0.00 0.00 53 1014.0
20260502122533 50 98 1.7 6.1 0.00 0.00 0.00 53 1014.0
20260502122034 50 0 0.0 1.7 0.00 0.00 0.00 52 1013.9
20260502121544 50 0 0.9 1.7 0.00 0.00 0.00 53 1014.1
20260502121034 50 0 0.0 0.0 0.00 0.00 0.00 56 1014.4
20260502120536 50 0 0.0 0.0 0.00 0.00 0.00 63 1014.2
20260502115533 50 0 0.0 1.7 0.00 0.00 0.00 60 1014.0
20260502115033 50 156 0.9 1.7 0.00 0.00 0.00 64 1014.1
20260502114603 50 147 0.0 1.7 0.00 0.00 0.00 56 1014.2
20260502114034 50 0 0.0 2.6 0.00 0.00 0.00 58 1014.0
20260502113536 50 0 0.0 5.2 0.00 0.00 0.00 57 1013.9
20260502113046 50 357 1.7 5.2 0.00 0.00 0.00 50 1013.9
20260502112535 49 109 1.7 4.3 0.00 0.00 0.00 52 1013.7
20260502112033 49 0 0.0 1.7 0.00 0.00 0.00 64 1013.7
20260502111542 50 165 0.9 3.5 0.00 0.00 0.00 72 1013.5
20260502111034 50 123 0.9 3.5 0.00 0.00 0.00 54 1013.7
20260502110536 49 91 0.0 1.7 0.00 0.00 0.00 64 1013.7
20260502110041 49 0 0.0 1.7 0.00 0.00 0.00 70 1013.7
20260502105534 50 139 0.0 1.7 0.00 0.00 0.00 69 1013.5
20260502105033 50 96 0.0 1.7 0.00 0.00 0.00 65 1013.2
20260502104541 50 95 0.0 1.7 0.00 0.00 0.00 63 1013.3
20260502104035 50 0 0.0 1.7 0.00 0.00 0.00 66 1013.4
20260502103536 50 153 0.9 2.6 0.00 0.00 0.00 66 1013.1
20260502103040 50 135 1.7 2.6 0.00 0.00 0.00 66 1013.4
20260502102533 51 0 0.0 2.6 0.00 0.00 0.00 59 1013.4
20260502102034 51 0 0.0 3.5 0.00 0.00 0.00 65 1013.3
20260502101600 51 8 0.9 4.3 0.00 0.00 0.00 57 1013.5
20260502101035 51 42 1.7 4.3 0.00 0.00 0.00 59 1013.4
20260502100533 52 288 1.7 9.6 0.00 0.00 0.00 59 1013.4
20260502100104 52 350 1.7 9.6 0.00 0.00 0.00 60 1013.4
20260502091033 51 0 0.0 2.6 0.00 0.00 0.00 73 1013.3
20260502090533 52 0 0.0 2.6 0.00 0.00 0.00 68 1013.5
20260502071034 54 359 3.5 7.0 0.00 0.00 0.00 65 1012.2
20260502070533 53 313 1.7 4.3 0.00 0.00 0.00 66 1012.5
20260502070047 53 0 0.0 5.2 0.00 0.00 0.00 68 1012.6
20260502065534 54 331 0.9 7.0 0.00 0.00 0.00 66 1012.7
20260502065034 54 303 2.6 7.0 0.00 0.00 0.00 66 1012.7
20260502064611 54 3 4.3 7.0 0.00 0.00 0.00 66 1012.7
20260502064033 54 317 2.6 7.0 0.00 0.00 0.00 67 1012.7
20260502063534 54 314 2.6 7.0 0.00 0.00 0.00 67 1012.7
20260502063052 54 337 3.5 7.0 0.00 0.00 0.00 67 1012.8
20260502062534 54 293 3.5 7.0 0.00 0.00 0.00 67 1012.9
20260502062036 54 293 2.6 7.0 0.00 0.00 0.00 67 1012.9
20260502061546 54 326 1.7 6.1 0.00 0.00 0.00 67 1013.0
20260502061033 54 290 1.7 5.2 0.00 0.00 0.00 69 1012.9
20260502060535 54 285 1.7 3.5 0.00 0.00 0.00 69 1013.1
20260502060046 54 286 0.9 4.3 0.00 0.00 0.00 70 1013.1
20260502055533 54 326 1.7 4.3 0.00 0.00 0.00 69 1013.0
20260502055032 54 311 1.7 4.3 0.00 0.00 0.00 70 1013.0
20260502054548 54 280 1.7 4.3 0.00 0.00 0.00 70 1013.1
20260502054034 54 308 0.9 2.6 0.00 0.00 0.00 70 1013.1
20260502053533 54 19 0.0 1.7 0.00 0.00 0.00 71 1013.1
20260502053049 54 0 0.0 3.5 0.00 0.00 0.00 70 1013.1
20260502052537 54 0 0.0 3.5 0.00 0.00 0.00 70 1013.1
20260502052034 54 287 2.6 3.5 0.00 0.00 0.00 71 1013.1
20260502051603 54 274 0.9 3.5 0.00 0.00 0.00 72 1013.0
20260502051033 54 287 0.9 4.3 0.00 0.00 0.00 73 1013.0
20260502050534 54 333 0.9 4.3 0.00 0.00 0.00 73 1013.1
20260502050049 54 48 1.7 4.3 0.00 0.00 0.00 75 1013.2
20260502045537 53 323 0.9 2.6 0.00 0.00 0.00 77 1013.2
20260502045035 53 320 0.9 1.7 0.00 0.00 0.00 79 1013.1
20260502044543 53 18 0.9 1.7 0.00 0.00 0.00 80 1013.2
20260502044034 53 288 0.0 0.9 0.00 0.00 0.00 81 1013.4
20260502043534 54 302 0.0 0.9 0.00 0.00 0.00 80 1013.2
20260502043117 54 0 0.0 0.9 0.00 0.00 0.00 80 1013.4
20260502042534 54 0 0.0 1.7 0.00 0.00 0.00 79 1013.2
20260502042034 54 357 0.9 1.7 0.00 0.00 0.00 79 1013.2
20260502041553 54 0 0.0 4.3 0.00 0.00 0.00 79 1013.4
20260502041038 54 0 0.0 4.3 0.00 0.00 0.00 79 1013.3
20260502040534 54 297 1.7 6.1 0.00 0.00 0.00 79 1013.3
20260502040045 54 300 3.5 6.1 0.00 0.00 0.00 79 1013.3
20260502035535 54 355 2.6 4.3 0.00 0.00 0.00 80 1013.4
20260502035035 54 299 0.9 2.6 0.00 0.00 0.00 81 1013.4
20260502034541 54 292 0.9 1.7 0.00 0.00 0.00 80 1013.4
20260502034034 54 278 0.9 1.7 0.00 0.00 0.00 80 1013.3
20260502033534 54 0 0.0 1.7 0.00 0.00 0.00 80 1013.3
20260502033047 54 295 0.9 2.6 0.00 0.00 0.00 79 1013.2
20260502032535 54 303 0.9 3.5 0.00 0.00 0.00 78 1013.2
20260502032034 54 283 0.0 3.5 0.00 0.00 0.00 78 1013.1
20260502031540 55 342 0.9 1.7 0.00 0.00 0.00 78 1013.2
20260502031033 55 0 0.0 0.0 0.00 0.00 0.00 77 1013.2
20260502030534 55 0 0.0 0.9 0.00 0.00 0.00 77 1013.2
20260502030050 55 0 0.0 0.9 0.00 0.00 0.00 77 1013.1
20260502025533 55 295 0.0 2.6 0.00 0.00 0.00 77 1013.1
20260502025036 55 296 0.9 2.6 0.00 0.00 0.00 77 1013.1
20260502024547 55 300 1.7 2.6 0.00 0.00 0.00 77 1013.1
20260502024039 55 285 0.0 1.7 0.00 0.00 0.00 77 1013.1
20260502023533 55 288 0.9 1.7 0.00 0.00 0.00 77 1013.2
20260502023044 55 332 0.0 0.0 0.00 0.00 0.00 76 1013.1
20260502022536 55 0 0.0 0.0 0.00 0.00 0.00 77 1013.1
20260502022033 55 0 0.0 0.9 0.00 0.00 0.00 76 1013.1
20260502021547 56 0 0.0 0.9 0.00 0.00 0.00 76 1013.1
20260502021033 56 260 0.0 0.9 0.00 0.00 0.00 75 1012.9
20260502020537 56 0 0.0 1.7 0.00 0.00 0.00 75 1012.8
20260502020040 55 278 0.9 1.7 0.00 0.00 0.00 75 1012.8
20260502015534 55 278 0.0 1.7 0.00 0.00 0.00 76 1012.6
20260502015034 55 281 0.9 1.7 0.00 0.00 0.00 76 1012.7
20260502014546 56 277 0.0 0.9 0.00 0.00 0.00 75 1012.5
20260502014033 55 0 0.0 1.7 0.00 0.00 0.00 76 1012.7
20260502013533 55 0 0.0 1.7 0.00 0.00 0.00 76 1012.5
20260502013051 55 0 0.0 1.7 0.00 0.00 0.00 76 1012.4
20260502012533 55 284 0.0 1.7 0.00 0.00 0.00 77 1012.5
20260502012033 55 288 0.9 1.7 0.00 0.00 0.00 78 1012.7
20260502011542 55 0 0.0 1.7 0.00 0.00 0.00 78 1012.6
20260502011032 55 0 0.0 0.9 0.00 0.00 0.00 78 1012.5
20260502010533 55 0 0.0 0.0 0.00 0.00 0.00 77 1012.4
20260502010044 55 0 0.0 0.0 0.00 0.00 0.00 77 1012.4
20260502005534 55 0 0.0 0.0 0.00 0.00 0.00 77 1012.2
20260502005034 55 0 0.0 0.0 0.00 0.00 0.00 77 1012.1
20260502004546 55 0 0.0 0.0 0.00 0.00 0.00 77 1011.9
20260502004034 56 0 0.0 0.0 0.00 0.00 0.00 75 1011.8
20260502003532 56 0 0.0 0.0 0.00 0.00 0.00 75 1011.7
20260502003043 57 0 0.0 0.0 0.00 0.00 0.00 72 1011.8
20260502002533 57 0 0.0 0.0 0.00 0.00 0.00 72 1011.9
20260502002034 58 0 0.0 0.0 0.00 0.00 0.00 72 1011.8
20260502001544 58 0 0.0 0.0 0.00 0.00 0.00 70 1011.7
20260502001033 58 0 0.0 0.0 0.00 0.00 0.00 68 1011.6
20260502000533 59 0 0.0 0.0 0.00 0.00 0.00 66 1011.5
20260502000047 60 0 0.0 0.0 0.00 0.00 0.00 64 1011.4
20260501235533 60 0 0.0 0.0 0.00 0.00 0.00 63 1011.2
20260501235034 60 0 0.0 0.0 0.00 0.00 0.00 62 1011.1
20260501234543 61 0 0.0 0.0 0.00 0.00 0.00 62 1011.1
20260501234034 61 0 0.0 0.0 0.00 0.00 0.00 62 1011.0